EW6519 Weather Reports


Display with metric or nautical units.
time (UTC)temp
F
wind
direction
speed
MPH
gust
MPH
rain 1hr
in
rain 24hr
in
rain mn
in
humidity
%
barometer
mb
20260508190046 72 267 3.0 13.0 0.00 0.00 0.00 37 1010.2
20260508184544 71 234 4.0 12.0 0.00 0.00 0.00 39 1010.3
20260508183054 71 221 2.0 13.0 0.00 0.00 0.00 39 1010.7
20260508181549 70 255 3.0 17.0 0.00 0.00 0.00 37 1011.0
20260508180038 71 264 6.0 17.0 0.00 0.00 0.00 37 1011.2
20260508174536 71 250 6.0 12.0 0.00 0.00 0.00 36 1011.4
20260508173034 71 238 5.0 13.0 0.00 0.00 0.00 38 1011.7
20260508171531 71 261 3.0 13.0 0.00 0.00 0.00 40 1012.0
20260508170028 70 173 3.0 13.0 0.00 0.00 0.00 42 1012.3
20260508164527 69 242 0.0 11.0 0.00 0.00 0.00 45 1012.6
20260508163026 68 262 0.0 13.0 0.00 0.00 0.00 45 1013.0
20260508161521 69 248 3.0 9.0 0.00 0.00 0.00 44 1013.1
20260508160019 68 81 1.0 11.0 0.00 0.00 0.00 45 1013.2
20260508154538 66 258 5.0 14.0 0.00 0.00 0.00 46 1013.5
20260508153015 66 266 4.0 12.0 0.00 0.00 0.00 46 1013.6
20260508151514 64 243 4.0 10.0 0.00 0.00 0.00 49 1013.9
20260508150011 64 266 2.0 11.0 0.00 0.00 0.00 48 1014.0
20260508144508 63 237 6.0 13.0 0.00 0.00 0.00 48 1013.9
20260508143006 61 237 3.0 13.0 0.00 0.00 0.00 50 1014.1
20260508141503 61 238 2.0 11.0 0.00 0.00 0.00 51 1014.1
20260508140021 60 254 3.0 13.0 0.00 0.00 0.00 50 1014.3
20260508134518 59 226 1.0 11.0 0.00 0.00 0.00 52 1014.3
20260508133024 58 248 2.0 9.0 0.00 0.00 0.00 52 1014.4
20260508131513 57 266 2.0 8.0 0.00 0.00 0.00 52 1014.3
20260508130014 57 255 1.0 9.0 0.00 0.00 0.00 53 1014.3
20260508124508 55 171 1.0 11.0 0.00 0.00 0.00 55 1014.3
20260508123002 53 268 0.0 9.0 0.00 0.00 0.00 59 1014.2
20260508121557 51 232 3.0 9.0 0.00 0.00 0.00 61 1014.1
20260508120055 50 221 2.0 10.0 0.00 0.00 0.00 64 1014.2
20260508114554 48 251 0.0 8.0 0.00 0.00 0.00 66 1014.0
20260508113054 48 235 0.0 0.0 0.00 0.00 0.00 67 1013.8
20260508111554 48 240 0.0 0.0 0.00 0.00 0.00 65 1013.9
20260508110051 49 153 0.0 0.0 0.00 0.00 0.00 64 1013.6
20260508104550 49 238 0.0 5.0 0.00 0.00 0.00 63 1013.6
20260508103055 49 210 1.0 6.0 0.00 0.00 0.00 63 1013.6
20260508101549 49 251 0.0 6.0 0.00 0.00 0.00 63 1013.6
20260508100148 49 218 1.0 4.0 0.00 0.00 0.00 63 1013.6
20260508094601 48 236 0.0 0.0 0.00 0.00 0.00 65 1013.6
20260508093047 48 245 0.0 0.0 0.00 0.00 0.00 65 1013.7
20260508091547 48 218 0.0 5.0 0.00 0.00 0.00 65 1013.5
20260508090108 48 198 0.0 5.0 0.00 0.00 0.00 64 1013.6
20260508084547 49 238 1.0 6.0 0.00 0.00 0.00 64 1013.5
20260508083042 48 237 0.0 5.0 0.00 0.00 0.00 64 1013.5
20260508081559 48 240 0.0 7.0 0.00 0.00 0.00 64 1013.5
20260508080041 48 245 0.0 2.0 0.00 0.00 0.00 64 1013.5
20260508074545 48 241 0.0 0.0 0.00 0.00 0.00 64 1013.5
20260508073049 49 235 0.0 2.0 0.00 0.00 0.00 63 1013.4
20260508071537 49 238 0.0 5.0 0.00 0.00 0.00 61 1013.5
20260508070036 49 248 1.0 5.0 0.00 0.00 0.00 61 1013.5
20260508064536 49 248 0.0 0.0 0.00 0.00 0.00 60 1013.9
20260508063036 50 248 0.0 5.0 0.00 0.00 0.00 59 1014.1
20260508061538 50 240 1.0 4.0 0.00 0.00 0.00 58 1014.2
20260508060032 50 251 1.0 5.0 0.00 0.00 0.00 57 1014.4
20260508054535 50 236 2.0 7.0 0.00 0.00 0.00 56 1014.3
20260508053033 50 259 0.0 6.0 0.00 0.00 0.00 56 1014.3
20260508051524 50 238 0.0 5.0 0.00 0.00 0.00 57 1014.2
20260508050023 49 200 0.0 0.0 0.00 0.00 0.00 59 1014.1
20260508044521 49 239 0.0 0.0 0.00 0.00 0.00 60 1014.1
20260508043020 49 224 0.0 3.0 0.00 0.00 0.00 60 1014.2
20260508041521 49 199 0.0 2.0 0.00 0.00 0.00 62 1014.1
20260508040017 49 150 0.0 0.0 0.00 0.00 0.00 62 1014.1
20260508034517 49 150 0.0 0.0 0.00 0.00 0.00 61 1014.1
20260508033015 49 174 0.0 0.0 0.00 0.00 0.00 61 1014.2
20260508031514 49 245 0.0 0.0 0.00 0.00 0.00 61 1014.1
20260508030014 49 256 0.0 0.0 0.00 0.00 0.00 61 1014.2
20260508024532 50 256 0.0 0.0 0.00 0.00 0.00 61 1014.1
20260508023014 49 256 0.0 0.0 0.00 0.00 0.00 61 1014.1
20260508021511 49 256 0.0 0.0 0.00 0.00 0.00 60 1014.0
20260508020011 50 256 0.0 0.0 0.00 0.00 0.00 59 1014.0
20260508014511 50 256 0.0 0.0 0.00 0.00 0.00 57 1014.0
20260508013013 51 256 0.0 0.0 0.00 0.00 0.00 57 1013.9
20260508011509 52 256 0.0 0.0 0.00 0.00 0.00 55 1013.7
20260508010011 53 256 0.0 0.0 0.00 0.00 0.00 51 1013.8
20260508004518 54 256 0.0 0.0 0.00 0.00 0.00 48 1013.7
20260508003008 55 256 0.0 0.0 0.00 0.00 0.00 46 1013.6
20260508001524 56 256 0.0 0.0 0.00 0.00 0.00 44 1013.5
20260508000007 57 264 0.0 0.0 0.00 0.00 0.00 43 1013.4
20260507234509 58 207 0.0 0.0 0.00 0.00 0.00 42 1013.3
20260507233106 58 205 0.0 0.0 0.00 0.00 0.00 43 1013.2
20260507231504 58 37 0.0 2.0 0.00 0.00 0.00 43 1013.1
20260507230004 58 284 0.0 0.0 0.00 0.00 0.00 40 1013.3
20260507224504 59 276 0.0 0.0 0.00 0.00 0.00 41 1013.3
20260507223003 59 238 0.0 0.0 0.00 0.00 0.00 41 1013.2
20260507221501 59 233 0.0 0.0 0.00 0.00 0.00 41 1013.1
20260507220003 60 61 0.0 4.0 0.00 0.00 0.00 39 1013.3
20260507214600 60 278 0.0 8.0 0.00 0.00 0.00 40 1013.3
20260507213058 59 281 0.0 8.0 0.00 0.00 0.00 38 1013.4
20260507211604 60 311 2.0 7.0 0.00 0.00 0.00 37 1013.4
20260507210109 62 245 2.0 8.0 0.00 0.00 0.00 37 1013.3
20260507204558 60 316 3.0 11.0 0.00 0.00 0.00 37 1013.2
20260507203121 62 288 1.0 8.0 0.00 0.00 0.00 38 1013.3
20260507201553 61 276 0.0 5.0 0.00 0.00 0.00 40 1013.3
20260507200053 60 320 0.0 7.0 0.00 0.00 0.00 39 1013.4
20260507194601 61 115 0.0 5.0 0.00 0.00 0.00 38 1013.4
20260507193048 60 282 1.0 5.0 0.00 0.00 0.00 40 1013.6
20260507191549 59 286 1.0 10.0 0.00 0.00 0.00 38 1013.6